Weather History for Stuart, FL

Change the Weather History Date:

Friday, November 9, 2012

  Actual Average Record
Temperature  
Mean Temperature 63 °F -  
Max Temperature 71 °F 80 °F 88 °F (1989)
Min Temperature 55 °F 64 °F 50 °F (1951)
Degree Days  
Heating Degree Days 2    
Growing Degree Days 13 (Base 50)    
Moisture  
Dew Point 49 °F    
Average Humidity 60    
Maximum Humidity 77    
Minimum Humidity 43    
Precipitation  
Precipitation 0.00 in - - ()
Sea Level Pressure  
Sea Level Pressure 30.18 in    
Wind  
Wind Speed 8 mph (North)    
Max Wind Speed 16 mph    
Max Gust Speed 21 mph    
Visibility 9 miles    
Events      
Averages and records for this station are not official NWS values.
T = Trace of Precipitation, MM = Missing Value Source: NWS Daily Summary

Daily Weather History Graph

Daily Weather History Graph

Search for Another Location

Airport:

Trip Planner

Search our weather history database for the weather conditions in past years. The results will help you decide how hot, cold, wet, or windy it might be!

Date:

Astronomy

Nov. 09, 2012 Rise Set
Actual Time 6:36 AM EST 5:32 PM EST
Civil Twilight 6:12 AM EST 5:56 PM EST
Nautical Twilight 5:44 AM EST 6:24 PM EST
Astronomical Twilight 5:17 AM EST 6:52 PM EST
Moon 1:58 AM EST (11/9) 2:23 PM EST (11/9)
Length of Visible Light 11h 43m
Length of Day
10h 55m
Waning Crescent, 23% of the Moon is Illuminated
Nov 9
Waning Crescent
Nov 13
New
Nov 20
First Quarter
Nov 28
Full
Dec 6
Last Quarter

Hourly Weather History & Observations

Time (EST) Temp. Dew Point Humidity Pressure Visibility Wind Dir Wind Speed Gust Speed Precip Events Conditions
12:15 AM 57.2 °F 50.0 °F 77% 30.14 in 10.0 mi NNW 6.9 mph - N/A   Clear
12:35 AM 57.2 °F 50.0 °F 77% 30.14 in 10.0 mi NNW 5.8 mph - N/A   Clear
12:55 AM 57.2 °F 50.0 °F 77% 30.14 in 10.0 mi NNW 6.9 mph - N/A   Clear
1:15 AM 57.2 °F 50.0 °F 77% 30.14 in 10.0 mi NNW 6.9 mph - N/A   Clear
1:35 AM 57.2 °F 50.0 °F 77% 30.14 in 10.0 mi NNW 5.8 mph - N/A   Clear
1:55 AM 57.2 °F 48.2 °F 72% 30.14 in 10.0 mi NNW 6.9 mph - N/A   Clear
2:15 AM 57.2 °F 48.2 °F 72% 30.14 in 10.0 mi NNW 5.8 mph - N/A   Clear
2:35 AM 55.4 °F 46.4 °F 72% 30.13 in 10.0 mi NW 5.8 mph - N/A   Clear
2:55 AM 57.2 °F 48.2 °F 72% 30.14 in 10.0 mi NNW 6.9 mph - N/A   Clear
3:15 AM 57.2 °F 48.2 °F 72% 30.14 in 10.0 mi NNW 6.9 mph - N/A   Clear
3:35 AM 59.0 °F 46.4 °F 63% 30.14 in 10.0 mi NNW 8.1 mph - N/A   Clear
3:55 AM 59.0 °F 46.4 °F 63% 30.15 in 10.0 mi NW 6.9 mph - N/A   Clear
4:15 AM 57.2 °F 46.4 °F 67% 30.15 in 10.0 mi NNW 8.1 mph - N/A   Clear
4:35 AM 57.2 °F 46.4 °F 67% 30.15 in 10.0 mi NW 8.1 mph - N/A   Clear
4:55 AM 57.2 °F 46.4 °F 67% 30.15 in 10.0 mi NW 5.8 mph - N/A   Clear
5:15 AM 57.2 °F 46.4 °F 67% 30.16 in 10.0 mi NNW 5.8 mph - N/A   Clear
6:47 AM 57.2 °F 50.0 °F 77% 30.18 in 7.0 mi NW 5.8 mph - N/A   Partly Cloudy
7:47 AM 59.0 °F 50.0 °F 72% 30.20 in 7.0 mi NW 5.8 mph - N/A   Scattered Clouds
8:47 AM 66.2 °F 55.4 °F 68% 30.22 in 10.0 mi NNW 11.5 mph - N/A   Scattered Clouds
9:47 AM 68.0 °F 55.4 °F 64% 30.23 in 7.0 mi North 10.4 mph 16.1 mph N/A   Scattered Clouds
10:47 AM 71.6 °F 55.4 °F 57% 30.23 in 7.0 mi North 15.0 mph 20.7 mph N/A   Scattered Clouds
12:47 PM 68.0 °F 55.4 °F 64% 30.21 in 7.0 mi North 15.0 mph - N/A   Mostly Cloudy
2:47 PM 69.8 °F 55.4 °F 60% 30.19 in - North 13.8 mph 19.6 mph N/A   Mostly Cloudy
3:47 PM 69.8 °F 55.4 °F 60% 30.19 in - North 13.8 mph 19.6 mph N/A   Mostly Cloudy
7:15 PM 69.8 °F 50.0 °F 49% 30.20 in 10.0 mi ENE 10.4 mph - N/A   Overcast
7:35 PM 69.8 °F 46.4 °F 43% 30.20 in 5.0 mi NE 9.2 mph - N/A   Haze
7:55 PM 69.8 °F 46.4 °F 43% 30.20 in 3.0 mi ENE 10.4 mph - N/A   Haze
8:15 PM 69.8 °F 48.2 °F 46% 30.20 in 10.0 mi ENE 10.4 mph - N/A   Overcast
8:35 PM 69.8 °F 46.4 °F 43% 30.20 in 10.0 mi ENE 11.5 mph 17.3 mph N/A   Overcast
8:55 PM 69.8 °F 50.0 °F 49% 30.21 in 10.0 mi ENE 8.1 mph - N/A   Overcast
9:15 PM 69.8 °F 50.0 °F 49% 30.22 in 10.0 mi ENE 11.5 mph - N/A   Overcast
9:35 PM 69.8 °F 50.0 °F 49% 30.22 in 10.0 mi ENE 16.1 mph 19.6 mph N/A   Overcast
9:55 PM 69.8 °F 48.2 °F 46% 30.23 in 10.0 mi ENE 11.5 mph - N/A   Overcast
10:15 PM 69.8 °F 46.4 °F 43% 30.23 in 10.0 mi East 11.5 mph - N/A   Overcast
10:35 PM 69.8 °F 48.2 °F 46% 30.23 in 10.0 mi ENE 11.5 mph - N/A   Overcast
10:55 PM 68.0 °F 46.4 °F 46% 30.23 in 10.0 mi ENE 10.4 mph - N/A   Scattered Clouds
11:15 PM 68.0 °F 46.4 °F 46% 30.22 in 10.0 mi NE 5.8 mph - N/A   Mostly Cloudy
11:35 PM 69.8 °F 48.2 °F 46% 30.22 in 10.0 mi East 4.6 mph - N/A   Overcast
11:55 PM 69.8 °F 50.0 °F 49% 30.21 in 10.0 mi East 3.5 mph - N/A   Overcast